Weather History for Luxor, Egypt

Change the Weather History Date:

Saturday, August 31, 2013

  Actual Average Record
Temperature  
Mean Temperature 91 °F -  
Max Temperature 105 °F 99 °F 109 °F (2005)
Min Temperature 77 °F 72 °F 73 °F (1997)
Cooling Degree Days 26    
Growing Degree Days 41 (Base 50)    
Moisture  
Dew Point 62 °F    
Average Humidity 36    
Maximum Humidity 54    
Minimum Humidity 19    
Precipitation  
Precipitation 0.00 in 0.00 in - ()
Sea Level Pressure  
Sea Level Pressure 29.71 in    
Wind  
Wind Speed 2 mph ()    
Max Wind Speed 7 mph    
Max Gust Speed -    
Visibility 6.0 miles    
Events      
Averages and records for this station are not official NWS values.
T = Trace of Precipitation, MM = Missing Value Source: Averaged Metar Reports

Daily Weather History Graph

Daily Weather History Graph

Search for Another Location

Airport:

Trip Planner

Search our weather history database for the weather conditions in past years. The results will help you decide how hot, cold, wet, or windy it might be!

Date:

Astronomy

Aug. 31, 2013 Rise Set
Actual Time 5:29 AM EET 6:09 PM EET
Civil Twilight 5:05 AM EET 6:32 PM EET
Nautical Twilight 4:38 AM EET 7:00 PM EET
Astronomical Twilight 4:10 AM EET 7:28 PM EET
Moon 12:57 AM EET (8/31) 2:37 PM EET (8/31)
Length of Visible Light 13h 27m
Length of Day
12h 40m
Waning Crescent, 23% of the Moon is Illuminated
Aug 31
Waning Crescent
Sep 5
New
Sep 12
First Quarter
Sep 19
Full
Sep 27
Last Quarter

Hourly Weather History & Observations

Time (EET) Temp. Heat Index Dew Point Humidity Pressure Visibility Wind Dir Wind Speed Gust Speed Precip Events Conditions
12:00 AM 87.8 °F 88.5 °F 62.6 °F 43% 29.71 in - SE 4.6 mph - N/A   Clear
1:00 AM 89.6 °F 89.5 °F 60.8 °F 38% 29.71 in - NNE 2.3 mph - N/A   Clear
2:00 AM 82 °F - 61 °F 39% 29.70 in 6 mi Calm Calm - -  
2:00 AM 82.4 °F 82.9 °F 60.8 °F 48% 29.71 in - Calm Calm - N/A   Clear
3:00 AM 82.4 °F 83.4 °F 62.6 °F 51% 29.71 in - Calm Calm - N/A   Clear
4:00 AM 80.6 °F 81.1 °F 59.0 °F 48% 29.71 in - SSW 2.3 mph - N/A   Clear
5:00 AM 78.8 °F - 60.8 °F 54% 29.71 in - Calm Calm - N/A   Clear
6:00 AM 78.8 °F - 60.8 °F 54% 29.71 in - SW 3.5 mph - N/A   Clear
7:00 AM 82.4 °F 83.4 °F 62.6 °F 51% 29.74 in - SW 3.5 mph - N/A   Clear
8:00 AM 88 °F - 64 °F 35% 29.74 in 6 mi SW 2.3 mph - -  
8:00 AM 87.8 °F 89.4 °F 64.4 °F 46% 29.74 in - SW 2.3 mph - N/A   Clear
9:00 AM 93.2 °F 93.3 °F 60.8 °F 34% 29.77 in - Calm Calm - N/A   Clear
10:00 AM 95.0 °F 96.0 °F 62.6 °F 34% 29.74 in - Calm Calm - N/A   Clear
11:00 AM 98.6 °F 102.8 °F 66.2 °F 35% 29.74 in - West 4.6 mph - N/A   Clear
12:00 PM 100.4 °F 103.6 °F 64.4 °F 31% 29.71 in - West 2.3 mph - N/A   Clear
1:00 PM 102.2 °F 105.5 °F 64.4 °F 29% 29.68 in - NW 2.3 mph - N/A   Clear
2:00 PM 103 °F - 64 °F 19% 29.65 in 6 mi West 2.3 mph - -  
2:00 PM 104.0 °F 107.4 °F 64.4 °F 27% 29.68 in - West 2.3 mph - N/A   Clear
3:00 PM 104.0 °F 107.4 °F 64.4 °F 27% 29.65 in - North 2.3 mph - N/A   Clear
4:00 PM 104.0 °F 104.6 °F 59.0 °F 23% 29.65 in - NW 2.3 mph - N/A   Clear
5:00 PM 102.2 °F 104.2 °F 62.6 °F 27% 29.65 in - WNW 4.6 mph - N/A   Clear
6:00 PM 102.2 °F 101.4 °F 57.2 °F 22% 29.68 in - West 6.9 mph - N/A   Clear
7:00 PM 95.0 °F 93.7 °F 57.2 °F 28% 29.68 in - West 6.9 mph - N/A   Clear
8:00 PM 92 °F - 59 °F 24% 29.70 in 6 mi South 4.6 mph - -  
8:00 PM 93.2 °F 92.6 °F 59.0 °F 32% 29.71 in - South 4.6 mph - N/A   Clear
9:00 PM 89.6 °F 89.5 °F 60.8 °F 38% 29.74 in - SSW 4.6 mph - N/A   Clear
10:00 PM 89.6 °F 89.5 °F 60.8 °F 38% 29.74 in - WSW 3.5 mph - N/A   Clear
11:00 PM 86.0 °F 86.1 °F 60.8 °F 43% 29.74 in - Calm Calm - N/A   Clear